( click here )

Dagelijkse samenvatting Donderdag 22 augustus 2019
Tijd Temp. ( °C ) Dew pt. ( °C ) Wind ( km/h ) Van Windvlaag ( km/h ) Luchtdruk ( hPa ) Humid.( % ) Rainrate ( cm )
Hoog25,7 12,8 6,4 ZW ( 19/59 ) 17,7 1027,0 85 -
Gemiddeld18,8 11,6 0,8 Kalm #50/72 3,5 1026,1 65 -
Laag13,3 10,0 -   0,0 1025,3 44 -
Dagelijkse Tabular details for Donderdag 22 augustus 2019
Tijd Temp. ( °C ) Dew pt. ( °C ) Wind ( km/h ) Van Windvlaag ( km/h ) Luchtdruk ( hPa ) Humid.( % ) Rainrate ( cm )
00:00 16,2 11,7   Kalm   1027,0 75 -
00:15 15,9 11,7   Kalm   1027,0 76 -
00:30 15,9 11,7   Kalm   1026,6 76 -
00:45 15,7 11,7   Kalm   1026,6 76 -
01:00 15,6 11,7   Kalm   1026,6 77 -
01:15 15,2 11,7   Kalm   1026,6 79 -
01:30 14,8 11,7   Kalm   1026,6 81 -
01:45 14,6 11,7   Kalm   1026,6 81 -
02:00 14,3 11,1   Kalm   1026,3 82 -
02:15 14,3 11,7   Kalm 1,6 1026,0 83 -
02:30 14,6 11,1   Kalm 1,6 1026,3 81 -
02:45 13,9 11,1   Kalm   1026,0 83 -
03:00 13,7 11,1   Kalm   1026,0 84 -
03:15 13,6 11,1   Kalm   1026,0 85 -
03:30 13,4 11,1   Kalm   1026,0 85 -
03:45 13,6 10,6   Kalm 1,6 1026,0 83 -
04:00 13,9 10,6   Kalm 1,6 1026,0 81 -
04:15 13,3 10,6   Kalm   1026,0 83 -
04:30 13,6 10,6   Kalm   1026,0 83 -
04:45 13,6 10,6   Kalm   1025,6 82 -
05:00 13,5 10,6   Kalm   1026,0 82 -
05:15 13,6 10,6   Kalm   1026,0 82 -
05:45 13,8 10,0   Kalm   1025,6 79 -
06:00 13,8 10,0   Kalm 1,6 1025,6 79 -
06:15 13,6 10,0   Kalm   1025,6 80 -
06:30 13,6 10,0   Kalm   1025,6 79 -
06:45 13,4 10,0   Kalm   1025,6 80 -
07:00 13,7 10,0   Kalm   1025,6 78 -
07:15 13,6 10,0   Kalm   1026,0 79 -
07:30 13,6 10,0   Kalm   1026,0 80 -
07:45 13,6 10,0   Kalm   1026,0 80 -
08:00 14,1 10,6   Kalm   1026,3 79 -
08:15 14,6 10,6   Kalm   1026,6 77 -
08:30 15,1 10,6   Kalm   1026,6 75 -
08:45 15,7 11,1   Kalm   1026,6 74 -
09:00 16,3 11,7   Kalm   1026,6 74 -
09:15 17,0 12,2   Kalm   1026,6 73 -
09:30 17,7 12,2   Kalm   1026,6 71 -
09:45 17,9 12,2   Kalm   1026,6 70 -
10:00 18,3 12,8   Kalm   1026,6 69 -
10:15 19,0 12,8   Kalm   1026,6 68 -
10:30 19,6 12,8   Kalm   1026,6 65 -
11:00 21,2 12,2 1,6 ZW 12,9 1026,6 57 -
11:15 21,9 12,2 4,8 ZZW 8,0 1026,6 55 -
11:30 22,3 12,2   Kalm 8,0 1026,6 53 -
11:45 22,5 11,7 3,2 ZW 8,0 1026,6 51 -
12:00 22,9 12,2   Kalm 8,0 1026,3 51 -
12:15 23,2 12,2 3,2 WZW 8,0 1026,6 50 -
12:30 24,0 12,2 1,6 Westen 8,0 1026,3 47 -
12:45 24,4 12,2 3,2 ZW 9,7 1026,3 46 -
13:00 24,6 11,7 1,6 WZW 8,0 1026,3 45 -
13:15 24,3 12,2 4,8 ZZW 11,3 1026,3 47 -
13:30 24,9 12,2 3,2 Westen 17,7 1026,3 46 -
13:45 24,8 12,2 3,2 ZW 11,3 1026,3 45 -
14:00 24,7 12,2 3,2 Zuiden 6,4 1026,3 46 -
14:15 25,2 12,2 6,4 ZW 6,4 1026,0 44 -
14:30 25,1 12,8   Kalm 8,0 1026,0 46 -
14:45 24,8 11,7   Kalm 12,9 1026,0 44 -
15:00 24,8 12,2 1,6 Zuiden 6,4 1026,0 46 -
15:15 25,0 12,8 1,6 ZW 6,4 1025,6 46 -
15:30 25,3 12,8 1,6 WZW 9,7 1025,6 46 -
15:45 25,0 12,8 3,2 NO 4,8 1025,6 46 -
16:00 25,3 12,8 1,6 ZZW 9,7 1025,3 45 -
16:15 25,7 12,2 1,6 ZZW 11,3 1025,3 44 -
16:30 25,2 12,8 3,2 NNO 4,8 1025,3 47 -
16:45 24,9 12,2 1,6 Westen 4,8 1025,3 46 -
17:00 24,8 12,2   Kalm 6,4 1025,3 45 -
17:15 24,7 12,2 1,6 NO 6,4 1025,3 46 -
17:30 24,6 11,7   Kalm 4,8 1025,3 45 -
17:45 24,6 11,7 1,6 ZZW 6,4 1025,3 45 -
18:00 24,6 12,2   Kalm 4,8 1025,3 47 -
18:15 24,3 12,8   Kalm 6,4 1025,3 48 -
Dagelijkse samenvatting Donderdag 22 augustus 2019
Tijd Temp. ( °C ) Dew pt. ( °C ) Wind ( km/h ) Van Windvlaag ( km/h ) Luchtdruk ( hPa ) Humid.( % ) Rainrate ( cm )
Hoog25,7 12,8 6,4 ZW ( 19/59 ) 17,7 1027,0 85 -
Gemiddeld18,8 11,6 0,8 Kalm #50/72 3,5 1026,1 65 -
Laag13,3 10,0 -   0,0 1025,3 44 -
Dagelijkse Tabular details for Donderdag 22 augustus 2019
Tijd Temp. ( °C ) Dew pt. ( °C ) Wind ( km/h ) Van Windvlaag ( km/h ) Luchtdruk ( hPa ) Humid.( % ) Rainrate ( cm )
00:00 16,2 11,7   Kalm   1027,0 75 -
00:15 15,9 11,7   Kalm   1027,0 76 -
00:30 15,9 11,7   Kalm   1026,6 76 -
00:45 15,7 11,7   Kalm   1026,6 76 -
01:00 15,6 11,7   Kalm   1026,6 77 -
01:15 15,2 11,7   Kalm   1026,6 79 -
01:30 14,8 11,7   Kalm   1026,6 81 -
01:45 14,6 11,7   Kalm   1026,6 81 -
02:00 14,3 11,1   Kalm   1026,3 82 -
02:15 14,3 11,7   Kalm 1,6 1026,0 83 -
02:30 14,6 11,1   Kalm 1,6 1026,3 81 -
02:45 13,9 11,1   Kalm   1026,0 83 -
03:00 13,7 11,1   Kalm   1026,0 84 -
03:15 13,6 11,1   Kalm   1026,0 85 -
03:30 13,4 11,1   Kalm   1026,0 85 -
03:45 13,6 10,6   Kalm 1,6 1026,0 83 -
04:00 13,9 10,6   Kalm 1,6 1026,0 81 -
04:15 13,3 10,6   Kalm   1026,0 83 -
04:30 13,6 10,6   Kalm   1026,0 83 -
04:45 13,6 10,6   Kalm   1025,6 82 -
05:00 13,5 10,6   Kalm   1026,0 82 -
05:15 13,6 10,6   Kalm   1026,0 82 -
05:45 13,8 10,0   Kalm   1025,6 79 -
06:00 13,8 10,0   Kalm 1,6 1025,6 79 -
06:15 13,6 10,0   Kalm   1025,6 80 -
06:30 13,6 10,0   Kalm   1025,6 79 -
06:45 13,4 10,0   Kalm   1025,6 80 -
07:00 13,7 10,0   Kalm   1025,6 78 -
07:15 13,6 10,0   Kalm   1026,0 79 -
07:30 13,6 10,0   Kalm   1026,0 80 -
07:45 13,6 10,0   Kalm   1026,0 80 -
08:00 14,1 10,6   Kalm   1026,3 79 -
08:15 14,6 10,6   Kalm   1026,6 77 -
08:30 15,1 10,6   Kalm   1026,6 75 -
08:45 15,7 11,1   Kalm   1026,6 74 -
09:00 16,3 11,7   Kalm   1026,6 74 -
09:15 17,0 12,2   Kalm   1026,6 73 -
09:30 17,7 12,2   Kalm   1026,6 71 -
09:45 17,9 12,2   Kalm   1026,6 70 -
10:00 18,3 12,8   Kalm   1026,6 69 -
10:15 19,0 12,8   Kalm   1026,6 68 -
10:30 19,6 12,8   Kalm   1026,6 65 -
11:00 21,2 12,2 1,6 ZW 12,9 1026,6 57 -
11:15 21,9 12,2 4,8 ZZW 8,0 1026,6 55 -
11:30 22,3 12,2   Kalm 8,0 1026,6 53 -
11:45 22,5 11,7 3,2 ZW 8,0 1026,6 51 -
12:00 22,9 12,2   Kalm 8,0 1026,3 51 -
12:15 23,2 12,2 3,2 WZW 8,0 1026,6 50 -
12:30 24,0 12,2 1,6 Westen 8,0 1026,3 47 -
12:45 24,4 12,2 3,2 ZW 9,7 1026,3 46 -
13:00 24,6 11,7 1,6 WZW 8,0 1026,3 45 -
13:15 24,3 12,2 4,8 ZZW 11,3 1026,3 47 -
13:30 24,9 12,2 3,2 Westen 17,7 1026,3 46 -
13:45 24,8 12,2 3,2 ZW 11,3 1026,3 45 -
14:00 24,7 12,2 3,2 Zuiden 6,4 1026,3 46 -
14:15 25,2 12,2 6,4 ZW 6,4 1026,0 44 -
14:30 25,1 12,8   Kalm 8,0 1026,0 46 -
14:45 24,8 11,7   Kalm 12,9 1026,0 44 -
15:00 24,8 12,2 1,6 Zuiden 6,4 1026,0 46 -
15:15 25,0 12,8 1,6 ZW 6,4 1025,6 46 -
15:30 25,3 12,8 1,6 WZW 9,7 1025,6 46 -
15:45 25,0 12,8 3,2 NO 4,8 1025,6 46 -
16:00 25,3 12,8 1,6 ZZW 9,7 1025,3 45 -
16:15 25,7 12,2 1,6 ZZW 11,3 1025,3 44 -
16:30 25,2 12,8 3,2 NNO 4,8 1025,3 47 -
16:45 24,9 12,2 1,6 Westen 4,8 1025,3 46 -
17:00 24,8 12,2   Kalm 6,4 1025,3 45 -
17:15 24,7 12,2 1,6 NO 6,4 1025,3 46 -
17:30 24,6 11,7   Kalm 4,8 1025,3 45 -
17:45 24,6 11,7 1,6 ZZW 6,4 1025,3 45 -
18:00 24,6 12,2   Kalm 4,8 1025,3 47 -
18:15 24,3 12,8   Kalm 6,4 1025,3 48 -

  

   

U vindt ons ook hier:

Weather Underground

WeatherlinkIP

Apparatuur in gebruik:

Weerstation
Davis VP2

Weerprogramma
Meteobridge

Weercomputer
Meteobridge

Webleverancier
Robohost

Davis VP2

Meteobridge

Meteobridge

Robohost